Wind_Speed
28 28 30 31 31 30 24 19 15 18 23 34 36 32 20 22 29 41 31 15 13 9 10 9 8 9 10 11 12 12 12 10 10 10 10 8 8 7 7 7 7 7 6 6 7 8 8 8 9
32 33 34 34 34 33 25 21 24 16 23 41 39 27 26 28 37 37 26 12 19 16 12 12 13 12 12 12 12 13 14 11 10 11 12 12 11 11 10 9 9 10 10 10 10 9 9 9 11
36 38 38 39 37 33 28 27 24 19 19 42 39 28 28 29 43 33 23 22 24 21 16 16 15 12 12 10 10 10 11 13 11 11 12 13 13 12 12 12 12 12 11 11 11 11 10 12 13
40 41 41 43 37 32 32 31 25 14 27 40 45 35 34 36 41 32 21 23 22 19 16 16 13 11 11 10 9 8 6 5 5 6 9 11 12 14 14 15 15 14 14 14 14 13 13 14 15
42 44 45 45 37 37 36 33 31 23 23 28 43 39 37 41 41 35 30 28 25 20 19 19 16 15 14 14 11 11 11 12 11 11 10 11 12 12 13 14 15 15 16 16 17 17 18 18 18
44 46 47 44 38 42 39 39 36 39 36 44 46 36 39 48 42 37 33 32 30 25 24 24 21 20 18 17 17 16 16 16 16 16 17 16 15 16 16 16 16 15 16 17 18 19 20 20 20
44 46 47 47 44 44 43 42 41 41 47 50 44 40 37 48 53 37 39 36 35 30 29 27 26 24 23 21 20 20 21 21 20 21 21 21 22 20 19 20 20 20 20 21 21 21 22 24 24
42 47 49 47 45 42 38 36 29 32 33 42 48 42 44 44 52 50 40 41 40 35 34 30 29 28 26 23 23 24 24 25 24 24 24 23 22 23 23 24 25 26 25 25 25 26 26 26 27
40 45 49 43 38 34 36 38 34 41 48 48 41 44 43 46 52 59 37 43 43 39 37 35 32 32 29 28 26 26 25 27 27 26 25 24 23 23 24 27 29 31 31 31 30 30 30 31 31
43 43 37 32 34 33 35 38 35 46 53 50 43 49 48 49 47 51 40 43 43 40 39 37 36 35 33 31 28 27 27 26 27 28 27 25 24 25 26 27 30 33 35 36 36 36 36 35 35
44 41 36 37 36 36 35 38 32 44 51 49 43 48 36 46 51 39 39 39 42 42 48 41 39 38 34 30 28 28 27 27 28 27 28 27 27 27 27 30 31 34 36 39 39 40 41 40 40
46 42 42 40 42 42 41 41 42 42 43 46 42 47 40 42 39 36 38 31 49 41 46 46 43 37 33 29 27 25 26 28 28 28 31 31 32 31 32 29 34 36 38 40 40 42 44 43 45
51 48 47 43 43 44 45 45 44 45 44 44 42 45 43 44 35 36 35 35 40 44 46 48 40 34 31 27 25 24 25 26 28 29 31 31 31 31 32 30 33 37 40 42 43 41 43 45 46
52 54 53 50 47 45 47 47 46 43 44 49 45 47 45 36 32 34 30 30 33 35 34 54 46 32 26 22 24 22 23 25 27 27 27 28 28 28 29 30 31 35 36 40 41 44 44 46 46
54 56 57 58 53 50 49 50 45 44 47 47 51 44 46 41 36 33 29 28 33 34 37 15 28 23 26 26 22 19 22 25 26 28 26 30 30 30 30 34 36 35 37 39 42 44 43 43 44
57 57 61 55 54 54 54 54 45 47 49 47 48 43 41 43 35 31 27 29 32 41 40 51 21 22 25 22 22 20 24 26 28 29 31 33 33 35 34 36 36 35 37 37 38 39 43 45 46
62 63 64 58 54 52 58 56 49 48 50 49 49 43 40 39 36 31 29 32 36 44 46 26 16 20 23 22 20 22 25 26 29 30 34 36 37 38 38 37 36 36 35 35 39 40 43 46 47
67 66 64 62 54 51 53 56 53 50 50 50 48 45 39 40 36 32 32 34 39 39 48 44 22 24 21 22 21 25 28 30 31 33 36 39 40 40 39 41 42 39 38 39 41 43 44 46 45
65 62 62 60 55 52 55 57 54 50 48 48 50 44 42 40 38 32 34 36 40 40 49 12 18 20 19 22 24 28 31 32 32 33 37 41 43 43 44 45 44 41 40 40 41 44 44 43 43
73 71 66 64 55 48 54 58 57 53 49 48 47 44 40 41 40 36 35 37 38 45 45 54 23 17 20 23 27 31 32 31 31 35 39 43 44 47 46 43 44 43 41 42 43 44 44 40 37
78 76 71 66 58 38 38 51 56 57 52 44 48 46 43 42 41 38 37 36 39 40 53 12 21 19 23 26 30 31 31 31 34 37 40 42 44 45 43 46 46 45 44 44 45 44 41 40 32
83 77 73 69 65 61 39 46 57 61 61 49 47 48 44 45 42 40 40 36 38 41 45 35 26 27 27 28 30 30 30 32 35 38 38 39 39 40 41 42 45 43 42 43 43 42 36 37 30
64 75 70 73 70 62 61 42 44 47 66 53 41 43 47 46 44 41 40 41 39 38 38 36 32 31 29 29 31 31 32 34 37 38 37 38 37 36 37 44 43 41 41 42 40 43 50 38 30
39 50 52 62 63 59 71 51 47 47 67 61 47 43 45 48 46 46 45 45 43 36 41 40 35 30 32 33 31 32 33 35 39 39 37 35 34 38 42 46 49 43 42 41 37 44 34 36 33
47 43 52 57 62 59 64 69 60 58 62 66 53 45 43 47 49 47 46 47 48 41 46 40 31 35 36 31 31 33 34 36 38 38 38 35 36 33 28 29 36 35 36 35 33 34 38 34 35
41 51 56 55 60 68 58 64 74 65 68 56 49 47 43 46 49 48 48 48 48 46 44 30 38 36 32 30 31 33 35 36 38 37 37 38 38 36 38 39 37 38 33 34 35 37 35 32 36
16 41 48 39 49 47 63 60 69 65 61 37 49 55 52 49 52 51 48 48 52 46 30 38 36 34 29 30 32 34 36 37 39 36 37 35 37 36 39 45 37 23 28 35 39 34 28 31 32
21 24 36 44 44 53 48 55 62 66 51 40 43 52 51 45 52 52 54 53 53 30 38 37 35 33 31 31 32 34 36 38 39 39 35 35 39 37 36 27 24 32 35 39 38 30 30 30 28
23 31 37 44 53 39 49 49 41 56 58 45 42 48 50 52 56 50 52 53 38 36 35 33 33 32 32 32 33 35 36 38 40 37 34 36 38 33 32 31 26 24 20 23 26 28 28 30 31
32 21 34 43 40 42 39 35 35 41 50 47 47 46 52 54 51 46 48 46 37 38 35 34 33 34 33 33 35 35 37 37 35 32 33 33 33 30 28 23 22 24 24 26 27 31 33 35 37
Wind_Direction
247 240 239 237 238 240 236 227 221 172 256 245 237 239 222 230 260 236 221 224 256 264 270 265 275 292 293 301 304 302 295 294 289 281 278 275 285 289 291 294 296 293 288 286 288 291 295 298 301
250 246 242 241 241 243 234 223 223 189 265 259 249 253 254 254 255 256 266 240 253 264 263 257 266 273 282 292 309 300 287 287 277 284 287 287 288 292 292 290 294 294 299 301 301 300 298 300 302
249 248 245 244 243 242 242 230 224 226 235 258 258 251 250 232 258 264 259 266 263 268 266 261 262 266 269 280 302 318 294 281 287 295 289 284 283 283 285 288 289 290 294 298 300 299 301 302 300
248 246 246 246 246 246 243 235 209 218 239 254 256 249 245 253 258 267 276 265 263 263 260 260 261 260 262 259 278 299 315 302 296 296 300 291 287 288 286 285 284 284 284 284 284 284 286 291 293
244 243 244 242 240 244 245 236 222 201 247 236 256 247 248 251 258 261 258 258 257 259 255 259 257 260 260 261 265 270 276 284 284 286 291 300 300 291 291 290 287 286 285 284 281 279 280 283 286
242 240 240 241 240 242 242 249 234 205 230 236 238 251 240 252 249 255 255 256 256 254 252 253 255 255 255 261 270 275 277 277 281 285 285 289 292 291 291 285 282 283 285 285 284 285 286 285 285
245 244 241 242 236 239 241 244 245 242 236 240 249 251 246 252 259 247 251 252 256 252 250 251 254 254 259 263 269 273 274 276 278 281 288 291 293 290 287 283 283 280 277 277 278 279 282 284 285
245 246 244 242 241 239 248 249 251 261 252 242 245 251 251 244 259 254 243 247 251 253 255 252 254 257 259 263 269 273 279 286 289 291 293 293 291 291 288 283 276 275 274 273 274 276 279 281 284
244 243 243 246 249 243 243 241 235 249 250 250 251 248 245 249 251 264 252 257 255 254 257 260 261 262 264 268 270 275 281 283 286 289 288 286 284 285 284 283 281 277 277 276 277 278 279 280 282
245 243 245 246 241 235 232 234 235 244 251 251 250 247 253 265 261 261 266 262 262 262 263 262 262 264 266 267 274 277 283 287 288 291 291 290 287 283 282 278 277 276 279 280 280 280 281 281 283
249 245 249 244 244 240 230 233 228 239 251 249 250 257 250 257 257 266 265 265 272 268 258 261 261 261 265 268 269 270 276 281 286 288 287 287 286 287 285 280 275 274 275 278 280 282 282 282 281
256 251 247 244 242 239 235 238 240 243 247 252 251 254 252 252 265 263 264 257 265 254 273 256 256 252 256 261 265 271 272 274 278 282 282 283 282 284 287 284 278 274 273 275 278 281 281 282 282
252 251 248 245 244 242 241 242 243 246 249 250 249 252 251 250 258 254 251 259 268 268 276 237 251 245 254 257 264 263 266 269 270 273 278 284 288 287 287 284 279 271 274 273 273 274 278 281 282
251 251 248 246 243 242 244 241 243 246 250 253 249 252 252 250 249 251 246 254 259 259 251 252 252 248 254 254 254 258 264 270 273 276 281 286 284 282 282 282 277 277 276 275 272 271 277 276 278
250 248 247 244 246 246 245 245 245 246 246 248 254 249 256 256 253 254 254 252 251 259 262 272 225 232 243 252 259 261 267 269 276 281 281 281 283 282 284 281 286 287 287 285 282 283 284 284 285
248 247 249 247 246 246 249 245 246 246 248 249 252 254 252 256 251 252 251 247 249 255 256 257 214 242 251 257 264 266 267 276 281 288 287 284 286 289 289 289 290 290 288 289 287 288 290 288 288
247 251 252 250 251 251 250 243 243 243 246 248 251 250 251 252 251 241 237 238 244 247 246 273 233 237 252 259 263 270 271 274 279 282 283 286 286 288 288 290 290 290 287 290 292 292 292 293 293
248 251 253 253 248 251 252 244 244 242 245 247 248 249 248 252 248 238 231 232 238 248 270 227 227 230 247 264 267 266 269 268 276 283 285 282 283 285 287 287 285 286 289 290 291 293 296 298 302
246 252 251 250 248 253 258 250 249 247 243 245 247 245 243 245 248 236 228 234 242 242 219 259 226 233 249 266 266 265 268 276 281 284 285 284 286 287 287 288 288 287 288 290 294 296 297 302 308
245 244 244 246 249 253 249 251 248 246 241 241 242 244 240 240 239 237 229 233 236 245 250 231 262 255 258 261 266 269 271 276 280 279 280 282 286 288 290 288 288 288 287 289 290 293 299 303 308
248 245 242 241 241 230 245 245 243 246 239 234 239 237 236 235 235 234 236 230 233 238 252 276 275 268 251 256 259 261 266 269 272 275 277 281 283 287 289 289 289 288 287 288 290 293 297 302 302
248 247 245 240 240 234 226 240 242 242 242 233 231 233 234 234 236 231 234 227 232 235 243 261 267 262 259 262 265 262 265 273 277 278 280 283 286 289 293 291 288 289 288 287 291 296 300 301 299
249 246 241 243 240 235 221 227 230 238 242 233 229 234 231 230 233 233 231 235 230 240 246 254 255 259 262 263 265 269 273 275 277 278 284 288 290 288 290 287 286 284 286 285 289 288 287 294 296
222 236 227 228 234 232 226 213 229 217 236 235 227 227 228 230 230 232 231 231 234 233 240 242 248 252 254 259 265 268 273 277 282 289 290 290 287 293 295 288 291 279 284 283 288 295 286 293 292
216 210 216 215 216 223 233 217 213 230 234 235 232 228 224 225 227 230 233 234 237 236 240 241 241 242 249 256 262 269 275 281 282 288 292 293 294 291 289 311 303 297 278 283 285 291 289 288 291
218 212 217 216 220 224 224 225 224 227 229 239 241 231 228 224 225 228 231 235 238 239 243 245 240 246 249 256 263 269 277 279 283 288 288 292 291 289 296 291 293 275 271 274 279 289 283 285 285
235 226 214 213 218 228 222 224 234 223 224 226 232 231 228 222 220 224 226 230 237 241 239 244 248 250 251 256 262 269 274 278 281 285 285 289 288 295 299 298 274 258 270 279 285 283 283 286 289
213 210 223 225 225 214 216 222 228 220 209 203 216 231 226 224 222 219 225 232 238 237 240 246 250 250 251 256 263 268 273 278 282 283 289 295 294 294 294 297 272 280 277 277 271 279 288 290 291
229 207 217 226 219 220 212 212 219 220 203 202 205 224 223 218 219 224 229 233 234 229 238 243 246 250 252 255 260 265 272 277 280 286 292 293 291 291 287 284 286 277 282 292 296 292 290 292 294
237 215 209 217 218 208 210 199 193 210 192 191 192 198 205 225 229 230 232 232 223 231 235 242 246 249 250 252 258 265 270 272 277 284 286 287 291 289 292 302 297 292 293 284 278 280 281 285 292
Height
5875 5877 5877 5879 5881 5881 5886 5891 5894 5898 5901 5898 5896 5896 5901 5897 5889 5886 5860 5900 5906 5905 5905 5906 5908 5908 5908 5909 5910 5911 5911 5912 5913 5913 5913 5912 5912 5911 5911 5912 5912 5911 5911 5911 5911 5910 5910 5909 5908
5868 5870 5872 5872 5873 5874 5882 5888 5889 5894 5898 5889 5888 5897 5898 5895 5885 5887 5886 5895 5903 5903 5903 5904 5906 5907 5907 5908 5908 5908 5909 5910 5911 5912 5912 5911 5911 5911 5911 5911 5911 5911 5911 5910 5910 5909 5909 5908 5907
5861 5862 5863 5864 5865 5869 5876 5882 5886 5893 5892 5882 5884 5891 5892 5892 5876 5885 5895 5897 5899 5900 5901 5902 5903 5905 5905 5906 5906 5906 5906 5908 5909 5910 5911 5910 5910 5910 5910 5910 5909 5909 5909 5909 5909 5908 5908 5907 5906
5854 5855 5855 5854 5862 5867 5871 5876 5879 5886 5887 5878 5878 5884 5885 5884 5880 5887 5888 5894 5895 5896 5897 5899 5902 5902 5903 5903 5904 5905 5905 5906 5906 5908 5908 5908 5908 5908 5908 5907 5907 5907 5907 5906 5906 5906 5906 5905 5904
5847 5847 5847 5849 5856 5859 5863 5870 5876 5875 5876 5877 5871 5880 5879 5876 5876 5882 5885 5889 5890 5892 5895 5897 5898 5899 5900 5900 5901 5901 5902 5903 5904 5905 5906 5906 5906 5906 5906 5906 5905 5905 5904 5904 5903 5903 5902 5902 5902
5839 5840 5840 5844 5853 5854 5857 5860 5866 5865 5866 5866 5866 5874 5877 5866 5873 5877 5879 5881 5884 5889 5890 5892 5894 5895 5896 5897 5898 5899 5900 5900 5901 5902 5902 5902 5903 5903 5903 5903 5902 5903 5902 5902 5901 5900 5900 5899 5898
5832 5832 5834 5838 5844 5846 5850 5854 5856 5860 5861 5859 5862 5863 5872 5863 5860 5875 5873 5876 5879 5884 5886 5888 5889 5890 5892 5893 5895 5895 5896 5897 5898 5898 5898 5898 5899 5899 5900 5899 5899 5899 5898 5897 5897 5896 5895 5895 5895
5823 5822 5825 5830 5835 5844 5847 5850 5851 5850 5850 5853 5855 5854 5860 5865 5852 5857 5869 5870 5873 5878 5879 5883 5884 5885 5888 5890 5891 5891 5892 5892 5892 5893 5893 5894 5894 5895 5895 5895 5894 5893 5892 5892 5891 5892 5891 5890 5890
5812 5812 5816 5825 5831 5839 5838 5839 5843 5840 5838 5844 5849 5848 5846 5852 5851 5843 5867 5863 5866 5872 5875 5877 5879 5879 5883 5884 5884 5886 5886 5886 5887 5887 5888 5888 5889 5889 5890 5890 5890 5890 5889 5887 5887 5886 5886 5886 5885
5802 5805 5814 5819 5820 5823 5828 5828 5834 5831 5827 5836 5842 5838 5844 5842 5847 5846 5857 5857 5860 5866 5869 5870 5871 5873 5875 5876 5878 5879 5879 5879 5880 5881 5881 5883 5884 5884 5885 5884 5884 5884 5884 5883 5882 5881 5880 5880 5880
5796 5801 5808 5809 5811 5814 5818 5817 5823 5823 5819 5826 5833 5829 5843 5836 5838 5847 5849 5850 5855 5863 5858 5863 5864 5865 5867 5870 5871 5870 5870 5871 5872 5874 5875 5876 5877 5878 5878 5878 5879 5878 5877 5876 5876 5875 5874 5873 5873
5785 5794 5795 5799 5801 5804 5807 5810 5811 5814 5818 5818 5825 5825 5833 5833 5837 5844 5845 5850 5849 5832 5848 5852 5851 5852 5858 5864 5865 5866 5867 5865 5865 5866 5867 5868 5869 5871 5871 5871 5870 5870 5869 5868 5869 5868 5868 5867 5866
5776 5780 5781 5787 5792 5796 5799 5803 5804 5806 5810 5812 5816 5818 5823 5826 5833 5836 5840 5845 5845 5849 5845 5831 5850 5837 5847 5855 5856 5859 5862 5862 5859 5859 5860 5861 5862 5864 5863 5862 5862 5863 5860 5861 5860 5860 5860 5860 5857
5762 5763 5769 5774 5782 5787 5789 5793 5795 5804 5804 5804 5808 5810 5814 5821 5827 5829 5838 5842 5840 5844 5846 5820 5836 5834 5839 5849 5848 5849 5854 5855 5853 5853 5853 5854 5855 5855 5856 5854 5853 5851 5853 5851 5853 5850 5850 5848 5848
5748 5749 5754 5765 5773 5777 5778 5781 5790 5795 5793 5796 5798 5806 5808 5814 5819 5825 5832 5834 5831 5830 5829 5812 5820 5827 5837 5842 5843 5840 5844 5847 5847 5846 5849 5848 5848 5847 5848 5847 5846 5847 5847 5845 5843 5843 5842 5840 5839
5729 5735 5741 5760 5761 5766 5764 5774 5785 5783 5783 5788 5791 5798 5803 5806 5815 5821 5827 5827 5824 5816 5823 5823 5819 5825 5836 5840 5844 5836 5839 5840 5841 5841 5841 5841 5842 5841 5842 5841 5841 5841 5839 5839 5838 5836 5833 5832 5830
5717 5725 5732 5744 5750 5750 5748 5764 5771 5771 5773 5779 5782 5790 5795 5799 5806 5815 5819 5818 5815 5810 5819 5777 5807 5822 5833 5836 5836 5834 5835 5835 5835 5833 5834 5835 5837 5836 5835 5835 5835 5834 5833 5832 5830 5831 5828 5825 5824
5713 5715 5720 5725 5735 5732 5733 5748 5755 5759 5763 5769 5775 5781 5788 5792 5800 5807 5811 5813 5811 5813 5804 5798 5792 5805 5821 5826 5829 5830 5831 5830 5829 5828 5829 5830 5830 5829 5830 5830 5829 5828 5827 5825 5823 5821 5819 5817 5815
5695 5693 5699 5709 5718 5720 5722 5735 5741 5749 5755 5759 5764 5773 5779 5785 5791 5799 5803 5806 5802 5801 5795 5782 5793 5809 5819 5824 5826 5825 5827 5825 5822 5823 5824 5823 5824 5823 5823 5822 5822 5820 5819 5817 5816 5813 5811 5810 5807
5671 5676 5683 5696 5703 5706 5713 5718 5728 5733 5744 5751 5755 5763 5771 5776 5784 5790 5794 5799 5799 5791 5794 5797 5797 5800 5810 5818 5821 5819 5821 5820 5818 5817 5817 5816 5817 5814 5815 5814 5812 5811 5810 5809 5808 5807 5805 5802 5801
5649 5657 5671 5681 5693 5698 5701 5703 5711 5717 5731 5740 5747 5754 5760 5768 5776 5784 5785 5793 5794 5796 5763 5751 5788 5788 5806 5813 5817 5817 5817 5813 5809 5810 5811 5811 5810 5808 5807 5807 5805 5804 5802 5801 5801 5800 5798 5795 5795
5625 5645 5655 5665 5674 5676 5691 5690 5699 5708 5715 5725 5735 5744 5753 5760 5767 5776 5779 5783 5788 5790 5791 5786 5783 5795 5804 5809 5810 5809 5807 5802 5803 5805 5806 5805 5804 5802 5801 5799 5796 5795 5794 5793 5793 5792 5791 5789 5787
5605 5627 5634 5646 5653 5663 5669 5680 5689 5696 5699 5715 5729 5740 5743 5750 5758 5767 5775 5776 5781 5783 5785 5786 5789 5795 5798 5800 5800 5800 5796 5799 5797 5799 5800 5798 5797 5794 5792 5789 5787 5786 5787 5786 5786 5785 5785 5783 5780
5598 5603 5613 5625 5635 5633 5651 5664 5674 5685 5692 5708 5722 5727 5736 5741 5748 5754 5763 5770 5774 5779 5780 5785 5789 5791 5791 5791 5793 5793 5795 5794 5792 5794 5792 5791 5790 5787 5784 5781 5778 5778 5780 5780 5779 5778 5777 5776 5774
5580 5588 5593 5602 5607 5615 5636 5645 5660 5677 5687 5700 5711 5720 5725 5731 5737 5744 5751 5760 5766 5773 5775 5782 5786 5784 5785 5787 5788 5788 5788 5788 5787 5787 5786 5785 5783 5781 5777 5774 5774 5773 5774 5774 5772 5770 5771 5769 5768
5572 5579 5578 5585 5596 5607 5620 5622 5644 5669 5683 5692 5695 5709 5717 5723 5729 5736 5741 5748 5755 5759 5768 5777 5775 5778 5779 5781 5781 5781 5782 5782 5782 5781 5779 5777 5776 5774 5770 5767 5764 5766 5768 5768 5766 5764 5763 5764 5761
5567 5568 5583 5586 5593 5601 5608 5619 5640 5658 5670 5679 5685 5695 5704 5712 5718 5725 5731 5738 5741 5750 5762 5763 5768 5771 5771 5773 5775 5775 5776 5776 5776 5774 5773 5771 5769 5767 5764 5760 5755 5757 5761 5761 5758 5757 5757 5756 5754
5560 5570 5573 5577 5583 5584 5593 5607 5622 5642 5660 5668 5675 5683 5696 5703 5709 5715 5718 5728 5735 5749 5750 5755 5760 5763 5763 5766 5768 5769 5769 5768 5768 5766 5765 5765 5763 5761 5757 5755 5754 5755 5755 5753 5751 5752 5750 5751 5748
5555 5558 5564 5568 5571 5575 5589 5597 5616 5634 5650 5661 5670 5674 5682 5691 5692 5706 5715 5719 5734 5737 5742 5747 5752 5756 5758 5758 5760 5762 5763 5762 5761 5759 5758 5757 5755 5754 5752 5752 5750 5749 5748 5747 5746 5746 5743 5743 5741
5548 5552 5559 5561 5569 5575 5582 5591 5614 5627 5643 5654 5662 5660 5662 5680 5691 5703 5709 5717 5724 5729 5734 5740 5744 5748 5751 5752 5754 5756 5756 5755 5754 5754 5753 5751 5749 5748 5746 5744 5744 5744 5743 5742 5741 5739 5737 5736 5733